Location: ????????
(37.6846°N, 24.0673°E)
Time: 15:05:41
(UTC+00:00)

Cosmos 1864 Rocket - Pass Details

Date: 14 July 2020
Orbit: 951 x 997 km, 82.9° (Epoch: 04 August)

Event Time Altitude Azimuth Distance (km) Brightness Sun altitude
Exits shadow 00:17:41 59° 179° (S) 1,096 4.4 -25.5°
Maximum altitude 00:18:59 86° 94° (E) 959 4.4 -25.3°
Drops below altitude 10° 00:25:07 10° 8° (N) 2,684 7.7 -24.8°
Sets 00:27:37 0° 8° (N) 3,634 8.6 -24.5°
